Flag for American Samoa Weather past 2 weeks in Pago Pago, American Samoa

Now
80 °F

Passing clouds.


Feels Like: 84 °F
Forecast: 80 / 89 °F
Wind: 3 mph from North

Location: Pago Pago / Int. Airp.

Current Time: Mar 4, 2015 at 2:13:46 AM

Latest Report: Mar 4, 2015 at 1:51 AM


Visibility: 10 mi

Pressure: 29.69 "Hg

Humidity: 91%

Dew point: 77 °F

Location of Pago PagoLocation

Historic Weather in Pago Pago — Graph

°F

Pago Pago temperature yesterday

Maximum temperature yesterday: 89 °F (at 10:54 AM)
Minimum temperature yesterday: 79 °F (at 5:50 AM)
Average temperature yesterday: 83 °F

Past Weeks' High & Low Weather Summary

 TemperatureHumidityPressure
High91 °F (Feb 19, 1:53 PM)95% (Feb 22, 4:50 AM)29.88 "Hg (Feb 22, 4:50 AM)
Low76 °F (Feb 22, 4:50 AM)64% (Feb 22, 1:50 PM)29.66 "Hg (Mar 3, 3:50 PM)
Average84 °F81%29.78 "Hg
* Reported Feb 17 12:50 AM — Mar 4 12:50 AM, Pago Pago, Weather by CustomWeather, © 2015

Note: Actual official high and low records may vary slightly from our data, if they occured in-between our weather recording intervals... More about our weather records

Advertising

Pago Pago weather history for previous 24 hours

 ConditionsComfort  
Time TempWeatherWind HumidityBarometerVisibility
12:50 AM
Wed, Mar 4
80 °FPassing clouds.3 mph89%29.71 "Hg10 mi
11:52 PM
Tue, Mar 3
81 °FPassing clouds.No wind87%29.73 "Hg10 mi
10:50 PM81 °FPassing clouds.3 mph85%29.74 "Hg10 mi
9:50 PM82 °FPassing clouds.8 mph84%29.74 "Hg10 mi
8:50 PM81 °FPassing clouds.3 mph87%29.72 "Hg10 mi
7:50 PM82 °FPassing clouds.3 mph86%29.70 "Hg10 mi
6:50 PM85 °FPassing clouds.2 mph79%29.68 "Hg10 mi
5:55 PM85 °FBroken clouds.8 mph78%29.67 "Hg11 mi
4:50 PM86 °FBroken clouds.8 mph77%29.66 "Hg11 mi
3:50 PM87 °FBroken clouds.8 mph75%29.66 "Hg12 mi
2:50 PM87 °FBroken clouds.5 mph75%29.67 "Hg12 mi
1:50 PM85 °FBroken clouds.7 mph78%29.69 "Hg12 mi
12:55 PM88 °FBroken clouds.3 mph73%29.72 "Hg12 mi
11:51 AM88 °FScattered showers. Broken clouds.5 mph74%29.74 "Hg12 mi
10:54 AM89 °FBroken clouds.7 mph69%29.75 "Hg12 mi
9:59 AM88 °FScattered showers. Scattered clouds.8 mph77%29.75 "Hg12 mi
8:50 AM86 °FScattered clouds.6 mph79%29.75 "Hg12 mi
7:50 AM83 °FScattered clouds.No wind84%29.74 "Hg12 mi
6:50 AM79 °FBroken clouds.2 mph92%29.73 "Hg12 mi
5:50 AM79 °FPassing clouds.No wind93%29.72 "Hg10 mi
4:50 AM79 °FPassing clouds.No wind92%29.71 "Hg10 mi
3:50 AM79 °FPassing clouds.No wind92%29.71 "Hg10 mi
2:54 AM80 °FPassing clouds.No wind90%29.72 "Hg10 mi
Weather by CustomWeather, © 2015

See weather overviewHow to use our weather pages